Regional Weather Roundup
Issued by NWS

Home | Current Version | Previous Version | Text Only | Print | Product List | Glossary On
Versions: 1 2 3 4 5 6 7 8 9 10 11 12 13 14 15 16 17 18 19 20 21 22 23 24 25 26 27 28 29 30 31 32 33 34 35 36 37 38 39 40 41 42 43 44 45 46 47 48 49 50
000
ASUS43 KDMX 212306
RWRIA

WEATHER ROUNDUP FOR IOWA
NATIONAL WEATHER SERVICE DES MOINES IA
500 PM CST TUE NOV 21 2017

NOTE: "FAIR" INDICATES FEW OR NO CLOUDS BELOW 12,000 FEET WITH NO
SIGNIFICANT WEATHER AND/OR OBSTRUCTIONS TO VISIBILITY.

* - THESE STATIONS ARE NOT NWS STATIONS...THUS NOT UNDER NWS
QUALITY CONTROL.  THEY ALSO DO NOT REPORT WEATHER SUCH
AS PRECIPITATION OR FOG.

IAZ001>003-012>014-020>022-031>034-043>046-220000-
   NORTHWEST IOWA

CITY           SKY/WX    TMP DP  RH WIND       PRES   REMARKS
CARROLL *      CLEAR     28  10  47 NW18      30.29R WCI  16
CHEROKEE *     CLEAR     27  10  48 NW7       30.33R WCI  20
DENISON *      CLEAR     27  12  54 NW12G22   30.33R WCI  16
LE MARS *      CLEAR     27  10  50 NW9       30.34R WCI  17
ORANGE CITY *  CLEAR     27  10  50 NW10      30.31S WCI  17
SHELDON *      CLEAR     27   9  46 NW13G20   30.29R WCI  16
SIOUX CITY     CLEAR     26  10  50 NW14      30.36R WCI  14
SPENCER        CLEAR     26   8  46 NW18      30.29R WCI  13
STORM LAKE *   CLEAR     27  10  50 NW14      30.29R WCI  15
$$

IAZ055>058-069>071-079>083-090>094-220000-
   SOUTHWEST IOWA

CITY           SKY/WX    TMP DP  RH WIND       PRES   REMARKS
ATLANTIC *     CLEAR     28  14  54 NW15G23   30.30R WCI  17
AUDUBON *      CLEAR     28  12  50 NW9       30.30R WCI  20
CLARINDA *     CLEAR     32  16  51 N13       30.33R WCI  22
COUNCIL BLFS * CLEAR     28  12  50 NW16G25   30.32R WCI  17
CRESTON *      CLEAR     30  14  51 N17G24    30.27R WCI  18
HARLAN  *      CLEAR     28  14  54 NW16      30.34R WCI  17
LAMONI         CLEAR     32  16  51 N15       30.24R WCI  22
RED OAK *      CLEAR     30  14  51 NW10G22   30.33R WCI  21
SHENANDOAH *   CLEAR     32  14  47 N12       30.34R WCI  23
$$

IAZ047>049-059>061-072>074-084-220000-
   CENTRAL IOWA

CITY           SKY/WX    TMP DP  RH WIND       PRES   REMARKS
AMES           CLEAR     29  14  53 NW16      30.26R WCI  17
ANKENY *       CLEAR     32  14  47 NW15G23   30.27R WCI  22
BOONE *        CLEAR     28  10  47 NW15G24   30.25R WCI  17
CHARITON *     CLEAR     32  16  51 NW14G23   30.23R WCI  22
DES MOINES     CLEAR     32  14  47 NW16      30.26R WCI  21
GRINNELL*      CLEAR     29  18  61 NW17      30.23R WCI  17
KNOXVILLE *    CLEAR     32  14  47 NW16      30.22R WCI  21
MARSHALLTOWN   CLEAR     28  14  55 NW15G28   30.22R WCI  16
NEWTON *       CLEAR     30  16  55 NW18      30.23R WCI  18
PELLA *        CLEAR     31  17  54 NW16      30.25R WCI  20
PERRY *          N/A     30  11  46 NW10      30.27R WCI  21
$$

IAZ004>006-015-016-023>025-035-036-220000-
   NORTH CENTRAL IOWA

CITY           SKY/WX    TMP DP  RH WIND       PRES   REMARKS
ALGONA *       CLEAR     27  10  50 N13G22    30.26S WCI  16
CLARION *      CLEAR     27  12  54 NW18G25   30.25R WCI  13
ESTHERVILLE    CLEAR     23  10  57 NW17      30.28R WCI   9
FORT DODGE *   CLEAR     27  12  53 NW9       30.27R WCI  18
MASON CITY     CLEAR     24  11  57 NW21      30.24R WCI   9
FOREST CITY *    N/A     27  12  54 N15G22    30.23R WCI  15
WEBSTER CITY * CLEAR     27  10  50 NW17G25   30.23R WCI  14
IOWA FALLS *     N/A     28  14  55 NW16G23   30.23R WCI  16
$$

IAZ007>011-017>019-026>030-037>042-050>054-066-220000-
   NORTHEAST IOWA

CITY           SKY/WX    TMP DP  RH WIND       PRES   REMARKS
CEDAR RAPIDS   CLEAR     29  17  61 NW17      30.17R WCI  17
CHARLES CITY * CLEAR     27  12  54 NW13      30.20R WCI  16
CLINTON *      CLEAR     30  20  66 NW14      30.15R WCI  19
DECORAH *      CLEAR     27  14  59 N15       30.14S WCI  15
DUBUQUE        CLEAR     28  14  55 N21       30.13R WCI  15
MONTICELLO *   CLEAR     30  16  55 NW18      30.16R WCI  18
OELWEIN *      CLEAR     27  18  69 N17       30.17R WCI  14
WATERLOO       CLEAR     27  14  58 NW16      30.20R WCI  15
$$

IAZ064-065-067-068-078-220000-
   EAST CENTRAL IOWA

CITY           SKY/WX    TMP DP  RH WIND       PRES   REMARKS
DAVENPORT      CLEAR     30  19  63 NW17      30.17R WCI  18
IOWA CITY      CLEAR     32  17  54 NW16G24   30.21R WCI  21
MT. PLEASANT * CLEAR     32  18  56 NW16G24   30.19R WCI  21
MUSCATINE *    CLEAR     32  16  51 NW15G22   30.19R WCI  22
QUAD CITIES    CLEAR     33  17  51 NW14G25   30.15R WCI  23
$$

IAZ062-063-075>077-085>089-095>099-220000-
   SOUTHEAST IOWA

CITY           SKY/WX    TMP DP  RH WIND       PRES   REMARKS
BURLINGTON     CLEAR     32  20  61 NW12      30.18R WCI  23
FAIRFIELD *    CLEAR     32  18  55 NW16      30.19R WCI  21
FORT MADISON * CLEAR     32  19  59 NW10      30.20R WCI  24
KEOKUK *       CLEAR     34  19  55 NW12G20   30.19R WCI  25
OSKALOOSA *      N/A     31  19  59 NW15G21   30.22R WCI  20
OTTUMWA        CLEAR     31  18  58 NW14      30.21R WCI  21
WASHINGTON *   CLEAR     30  18  59 NW15G24   30.21R WCI  19
$$

ABBREVIATIONS USED IN REMARKS
   TC - TEMPERATURES IN CELSIUS
  WCI - WIND CHILL INDEX
   HX - HEAT INDEX
  VSB - VISIBILITY
$$





USA.gov is the U.S. government's official web portal to all federal, state and local government web resources and services.